| time (UTC) | temp C | wind direction | speed KPH | gust KPH | rain 1hr cm | rain 24hr cm | rain mn cm | humidity % | barometer mb |
| 20260507130032 | 9 | 301 | 11.3 | 19.3 | 0.00 | 0.00 | 0.00 | 59 | 1017.4 |
| 20260507124526 | 8 | 290 | 12.9 | 19.3 | 0.00 | 0.00 | 0.00 | 58 | 1017.4 |
| 20260507123019 | 9 | 293 | 11.3 | 17.7 | 0.00 | 0.00 | 0.00 | 56 | 1017.3 |
| 20260507121518 | 8 | 273 | 12.9 | 17.7 | 0.00 | 0.00 | 0.00 | 52 | 1017.4 |
| 20260507120021 | 8 | 295 | 12.9 | 19.3 | 0.00 | 0.00 | 0.00 | 53 | 1017.4 |
| 20260507114514 | 8 | 282 | 11.3 | 19.3 | 0.00 | 0.00 | 0.00 | 54 | 1017.4 |
| 20260507113012 | 8 | 264 | 11.3 | 20.9 | 0.00 | 0.00 | 0.00 | 57 | 1017.5 |
| 20260507111513 | 8 | 269 | 12.9 | 20.9 | 0.00 | 0.00 | 0.00 | 55 | 1017.5 |
| 20260507110009 | 9 | 306 | 9.7 | 16.1 | 0.00 | 0.00 | 0.00 | 53 | 1017.6 |
| 20260507104506 | 9 | 342 | 9.7 | 17.7 | 0.00 | 0.00 | 0.00 | 54 | 1017.5 |
| 20260507103008 | 8 | 321 | 8.0 | 17.7 | 0.00 | 0.00 | 0.00 | 56 | 1017.6 |
| 20260507101503 | 8 | 325 | 9.7 | 17.7 | 0.00 | 0.00 | 0.00 | 55 | 1017.4 |
| 20260507100100 | 8 | 320 | 4.8 | 16.1 | 0.00 | 0.00 | 0.00 | 50 | 1017.4 |
| 20260507094558 | 8 | 310 | 9.7 | 16.1 | 0.00 | 0.00 | 0.00 | 53 | 1017.4 |
| 20260507093101 | 8 | 312 | 6.4 | 12.9 | 0.00 | 0.00 | 0.00 | 50 | 1017.4 |
| 20260507091556 | 7 | 332 | 11.3 | 16.1 | 0.00 | 0.00 | 0.00 | 53 | 1017.4 |
| 20260507090156 | 7 | 346 | 4.8 | 16.1 | 0.00 | 0.00 | 0.00 | 53 | 1017.5 |
| 20260507084555 | 7 | 325 | 11.3 | 16.1 | 0.00 | 0.00 | 0.00 | 52 | 1017.5 |
| 20260507083053 | 7 | 24 | 3.2 | 11.3 | 0.00 | 0.00 | 0.00 | 57 | 1017.4 |
| 20260507081554 | 7 | 344 | 6.4 | 14.5 | 0.00 | 0.00 | 0.00 | 55 | 1017.3 |
| 20260507080058 | 7 | 351 | 3.2 | 11.3 | 0.00 | 0.00 | 0.00 | 60 | 1017.2 |
| 20260507074550 | 8 | 94 | 1.6 | 8.0 | 0.00 | 0.00 | 0.00 | 60 | 1017.2 |
| 20260507073046 | 7 | 146 | 1.6 | 9.7 | 0.00 | 0.00 | 0.00 | 62 | 1017.2 |
| 20260507071602 | 7 | 59 | 1.6 | 11.3 | 0.00 | 0.00 | 0.00 | 64 | 1017.3 |
| 20260507070040 | 7 | 102 | 1.6 | 6.4 | 0.00 | 0.00 | 0.00 | 63 | 1017.1 |
| 20260507064536 | 6 | 94 | 3.2 | 9.7 | 0.00 | 0.00 | 0.00 | 65 | 1017.1 |
| 20260507063037 | 6 | 34 | 1.6 | 6.4 | 0.00 | 0.00 | 0.00 | 67 | 1017.0 |
| 20260507061530 | 6 | 80 | 0.0 | 4.8 | 0.00 | 0.00 | 0.00 | 75 | 1016.9 |
| 20260507060025 | 5 | 21 | 0.0 | 3.2 | 0.00 | 0.00 | 0.00 | 77 | 1016.9 |
| 20260507054523 | 5 | 5 | 0.0 | 6.4 | 0.00 | 0.00 | 0.00 | 77 | 1016.8 |
| 20260507053022 | 5 | 45 | 0.0 | 0.0 | 0.00 | 0.00 | 0.00 | 79 | 1016.9 |
| 20260507051529 | 4 | 340 | 0.0 | 0.0 | 0.00 | 0.00 | 0.00 | 78 | 1016.8 |
| 20260507050022 | 3 | 333 | 0.0 | 0.0 | 0.00 | 0.00 | 0.00 | 79 | 1016.7 |
| 20260507044521 | 3 | 331 | 0.0 | 0.0 | 0.00 | 0.00 | 0.00 | 81 | 1016.6 |
| 20260507043018 | 3 | 355 | 0.0 | 0.0 | 0.00 | 0.00 | 0.00 | 82 | 1016.6 |
| 20260507041517 | 3 | 355 | 0.0 | 1.6 | 0.00 | 0.00 | 0.00 | 81 | 1016.4 |
| 20260507040017 | 3 | 355 | 0.0 | 3.2 | 0.00 | 0.00 | 0.00 | 81 | 1016.5 |
| 20260507034529 | 3 | 335 | 1.6 | 6.4 | 0.00 | 0.00 | 0.00 | 80 | 1016.4 |
| 20260507033029 | 3 | 326 | 1.6 | 6.4 | 0.00 | 0.00 | 0.00 | 81 | 1016.4 |
| 20260507031514 | 2 | 327 | 0.0 | 0.0 | 0.00 | 0.00 | 0.00 | 83 | 1016.3 |
| 20260507030013 | 2 | 327 | 0.0 | 0.0 | 0.00 | 0.00 | 0.00 | 83 | 1016.4 |
| 20260507024513 | 2 | 327 | 0.0 | 3.2 | 0.00 | 0.00 | 0.00 | 82 | 1016.3 |
| 20260507023020 | 2 | 327 | 0.0 | 0.0 | 0.00 | 0.00 | 0.00 | 82 | 1016.2 |
| 20260507021510 | 2 | 327 | 0.0 | 4.8 | 0.00 | 0.00 | 0.00 | 82 | 1016.2 |
| 20260507020012 | 2 | 342 | 0.0 | 6.4 | 0.00 | 0.00 | 0.00 | 82 | 1016.2 |
| 20260507014512 | 3 | 321 | 3.2 | 8.0 | 0.00 | 0.00 | 0.00 | 80 | 1016.2 |
| 20260507013007 | 2 | 321 | 4.8 | 8.0 | 0.00 | 0.00 | 0.00 | 82 | 1016.0 |
| 20260507011505 | 2 | 329 | 4.8 | 8.0 | 0.00 | 0.00 | 0.00 | 80 | 1016.1 |
| 20260507010003 | 3 | 332 | 1.6 | 4.8 | 0.00 | 0.00 | 0.00 | 80 | 1016.1 |
| 20260507003059 | 3 | 325 | 4.8 | 8.0 | 0.00 | 0.00 | 0.00 | 79 | 1016.0 |
| 20260507001557 | 3 | 313 | 3.2 | 6.4 | 0.00 | 0.00 | 0.00 | 79 | 1016.0 |
| 20260507000054 | 3 | 325 | 0.0 | 3.2 | 0.00 | 0.00 | 0.00 | 78 | 1016.0 |
| 20260506234553 | 3 | 336 | 0.0 | 6.4 | 0.00 | 0.00 | 0.00 | 77 | 1016.0 |
| 20260506233055 | 4 | 5 | 0.0 | 3.2 | 0.00 | 0.00 | 0.00 | 77 | 1015.8 |
| 20260506231546 | 4 | 9 | 0.0 | 3.2 | 0.00 | 0.00 | 0.00 | 76 | 1015.9 |
| 20260506230044 | 4 | 346 | 0.0 | 6.4 | 0.00 | 0.00 | 0.00 | 75 | 1015.8 |
| 20260506224543 | 4 | 319 | 1.6 | 9.7 | 0.00 | 0.00 | 0.00 | 75 | 1015.7 |
| 20260506223042 | 5 | 313 | 3.2 | 9.7 | 0.00 | 0.00 | 0.00 | 75 | 1015.7 |
| 20260506221540 | 4 | 329 | 1.6 | 12.9 | 0.00 | 0.00 | 0.00 | 75 | 1015.7 |
| 20260506220039 | 4 | 332 | 4.8 | 9.7 | 0.00 | 0.00 | 0.00 | 74 | 1015.6 |
| 20260506214542 | 4 | 344 | 6.4 | 12.9 | 0.00 | 0.00 | 0.00 | 74 | 1015.6 |
| 20260506213033 | 5 | 338 | 1.6 | 9.7 | 0.00 | 0.00 | 0.00 | 73 | 1015.5 |
| 20260506211534 | 5 | 340 | 6.4 | 12.9 | 0.00 | 0.00 | 0.00 | 72 | 1015.5 |
| 20260506210032 | 5 | 328 | 4.8 | 12.9 | 0.00 | 0.00 | 0.00 | 71 | 1015.5 |
| 20260506204531 | 5 | 324 | 6.4 | 14.5 | 0.00 | 0.00 | 0.00 | 71 | 1015.5 |
| 20260506203031 | 5 | 333 | 8.0 | 14.5 | 0.00 | 0.00 | 0.00 | 70 | 1015.6 |
| 20260506201530 | 5 | 305 | 9.7 | 16.1 | 0.00 | 0.00 | 0.00 | 69 | 1015.5 |
| 20260506200030 | 5 | 295 | 6.4 | 14.5 | 0.00 | 0.00 | 0.00 | 68 | 1015.5 |
| 20260506194528 | 5 | 330 | 9.7 | 17.7 | 0.00 | 0.00 | 0.00 | 66 | 1015.5 |
| 20260506193027 | 5 | 287 | 8.0 | 17.7 | 0.00 | 0.00 | 0.00 | 65 | 1015.5 |
| 20260506191526 | 6 | 300 | 9.7 | 19.3 | 0.00 | 0.00 | 0.00 | 63 | 1015.3 |
| 20260506190027 | 6 | 324 | 9.7 | 19.3 | 0.00 | 0.00 | 0.00 | 64 | 1015.3 |
| 20260506184525 | 6 | 336 | 11.3 | 24.1 | 0.00 | 0.00 | 0.00 | 60 | 1015.2 |
| 20260506183025 | 6 | 331 | 9.7 | 20.9 | 0.00 | 0.00 | 0.00 | 59 | 1015.1 |
| 20260506181524 | 6 | 308 | 9.7 | 22.5 | 0.00 | 0.00 | 0.00 | 57 | 1015.0 |
| 20260506180023 | 6 | 321 | 11.3 | 24.1 | 0.00 | 0.00 | 0.00 | 57 | 1015.0 |
| 20260506174522 | 7 | 321 | 16.1 | 25.7 | 0.00 | 0.00 | 0.00 | 59 | 1015.0 |
| 20260506173022 | 7 | 329 | 14.5 | 25.7 | 0.00 | 0.00 | 0.00 | 63 | 1014.9 |
| 20260506171524 | 7 | 311 | 12.9 | 24.1 | 0.00 | 0.00 | 0.00 | 59 | 1014.8 |
| 20260506170023 | 7 | 304 | 17.7 | 29.0 | 0.00 | 0.00 | 0.00 | 57 | 1014.7 |
| 20260506164520 | 7 | 340 | 14.5 | 27.4 | 0.00 | 0.00 | 0.00 | 54 | 1014.7 |
| 20260506163020 | 7 | 326 | 16.1 | 30.6 | 0.00 | 0.00 | 0.00 | 57 | 1014.6 |
| 20260506161521 | 7 | 319 | 14.5 | 27.4 | 0.00 | 0.00 | 0.00 | 58 | 1014.6 |
| 20260506160018 | 7 | 331 | 11.3 | 25.7 | 0.00 | 0.00 | 0.00 | 60 | 1014.7 |
| 20260506154518 | 7 | 334 | 12.9 | 24.1 | 0.00 | 0.00 | 0.00 | 60 | 1014.7 |
| 20260506153018 | 7 | 341 | 19.3 | 30.6 | 0.00 | 0.00 | 0.00 | 53 | 1014.7 |
| 20260506151517 | 8 | 315 | 14.5 | 25.7 | 0.00 | 0.00 | 0.00 | 56 | 1014.8 |
| 20260506150016 | 7 | 323 | 20.9 | 32.2 | 0.00 | 0.00 | 0.00 | 56 | 1014.8 |
| 20260506144520 | 7 | 342 | 20.9 | 25.7 | 0.00 | 0.00 | 0.00 | 54 | 1015.0 |
| 20260506143014 | 8 | 338 | 14.5 | 24.1 | 0.00 | 0.00 | 0.00 | 56 | 1015.1 |
| 20260506141613 | 8 | 329 | 14.5 | 22.5 | 0.00 | 0.00 | 0.00 | 55 | 1015.0 |
| 20260506140010 | 7 | 323 | 12.9 | 27.4 | 0.00 | 0.00 | 0.00 | 58 | 1015.0 |
| 20260506134510 | 8 | 323 | 11.3 | 24.1 | 0.00 | 0.00 | 0.00 | 60 | 1015.0 |
| 20260506133008 | 8 | 288 | 11.3 | 19.3 | 0.00 | 0.00 | 0.00 | 60 | 1015.1 |